Location: Newark
(42.5998°N, 13.2232°E)
Time: 18:11:15
(UTC+00:00)

Gurwin Techsat 1B - Visible Passes

Search period start: 10 April 2020 00:00
Search period end: 20 April 2020 00:00
Orbit: 813 x 813 km, 98.7° (Epoch: 10 April)

Date Brightness Start Highest point End Pass type
(mag) Time Alt. Az. Time Alt. Az. Time Alt. Az.
10 Apr 10.4 00:23:21 10° NNE 00:26:23 27° ENE 00:26:23 27° ENE visible
10 Apr 9.6 02:03:19 10° N 02:07:35 32° WNW 02:07:35 32° WNW visible
11 Apr 10.8 00:01:07 10° NE 00:03:20 18° ENE 00:03:20 18° ENE visible
11 Apr 9.1 01:40:09 10° N 01:44:33 47° NW 01:44:33 47° NW visible
11 Apr 11.2 23:39:37 10° ENE 23:40:18 11° ENE 23:40:18 11° ENE visible
12 Apr 9.0 01:17:09 10° NNE 01:21:30 60° N 01:21:30 60° N visible
12 Apr 10.6 02:59:37 10° NW 03:01:34 12° WNW 03:02:43 11° WNW visible
13 Apr 9.3 00:54:20 10° NNE 00:58:28 50° NE 00:58:28 50° NE visible
13 Apr 10.2 02:35:28 10° NNW 02:39:02 19° WNW 02:39:40 18° WNW visible
14 Apr 9.9 00:31:41 10° NNE 00:35:25 34° ENE 00:35:25 34° ENE visible
14 Apr 9.7 02:11:58 10° N 02:16:26 28° WNW 02:16:38 28° WNW visible
15 Apr 10.5 00:09:19 10° NE 00:12:23 23° ENE 00:12:23 23° ENE visible
15 Apr 9.1 01:48:43 10° N 01:53:35 43° WNW 01:53:35 43° WNW visible
15 Apr 11.0 23:47:27 10° NE 23:49:19 14° ENE 23:49:19 14° ENE visible
16 Apr 8.7 01:25:40 10° N 01:30:32 65° NW 01:30:32 65° NW visible
16 Apr 10.8 03:09:40 10° NW 03:09:54 10° NW 03:10:08 10° WNW visible
17 Apr 8.9 01:02:47 10° NNE 01:07:29 66° NE 01:07:29 66° NE visible
17 Apr 10.4 02:44:18 10° NNW 02:47:24 16° WNW 02:48:42 15° WNW visible
18 Apr 9.5 00:40:04 10° NNE 00:44:26 44° ENE 00:44:26 44° ENE visible
18 Apr 9.9 02:20:39 10° NNW 02:24:49 24° WNW 02:25:39 23° WNW visible
19 Apr 10.2 00:17:34 10° NE 00:21:23 28° E 00:21:23 28° E visible
19 Apr 9.3 01:57:19 10° N 02:02:10 37° WNW 02:02:36 36° WNW visible
